| time (UTC) | temp F | wind direction | speed knots | gust knots | rain 1hr in | rain 24hr in | rain mn in | humidity % | barometer mb |
| 20260903041125 | 69 | 338 | 0.0 | 0.0 | 0.00 | 0.25 | 0.00 | 99 | 1016.4 |
| 20260903040121 | 69 | 270 | 0.0 | 0.0 | 0.00 | 0.25 | 0.00 | 99 | 1016.4 |
| 20260903035127 | 69 | 315 | 0.0 | 0.0 | 0.00 | 0.25 | 0.25 | 99 | 1016.5 |
| 20260903034121 | 69 | 105 | 0.9 | 1.7 | 0.00 | 0.25 | 0.25 | 99 | 1016.4 |
| 20260903033121 | 68 | 97 | 0.9 | 2.6 | 0.00 | 0.25 | 0.25 | 99 | 1016.1 |
| 20260903032123 | 68 | 95 | 0.9 | 2.6 | 0.00 | 0.25 | 0.25 | 99 | 1016.2 |
| 20260903031123 | 68 | 101 | 1.7 | 2.6 | 0.00 | 0.25 | 0.25 | 99 | 1016.2 |
| 20260903030121 | 68 | 106 | 2.6 | 3.5 | 0.00 | 0.25 | 0.25 | 99 | 1016.2 |
| 20260903025124 | 68 | 98 | 0.9 | 3.5 | 0.00 | 0.25 | 0.25 | 99 | 1016.6 |
| 20260903024122 | 68 | 90 | 0.0 | 0.0 | 0.00 | 0.25 | 0.25 | 99 | 1016.8 |
| 20260903023143 | 68 | 225 | 0.0 | 0.0 | 0.00 | 0.25 | 0.25 | 99 | 1016.8 |
| 20260903022123 | 68 | 69 | 0.9 | 1.7 | 0.00 | 0.25 | 0.25 | 99 | 1016.5 |
| 20260903021144 | 68 | 81 | 0.0 | 1.7 | 0.00 | 0.25 | 0.25 | 99 | 1016.4 |
| 20260903020121 | 68 | 113 | 0.0 | 0.0 | 0.00 | 0.25 | 0.25 | 99 | 1016.4 |
| 20260903015123 | 68 | 338 | 0.0 | 0.0 | 0.00 | 0.25 | 0.25 | 99 | 1016.9 |
| 20260903014121 | 68 | 164 | 0.9 | 3.5 | 0.00 | 0.25 | 0.25 | 99 | 1016.8 |
| 20260903013145 | 68 | 123 | 2.6 | 5.2 | 0.00 | 0.25 | 0.25 | 99 | 1016.9 |
| 20260903012125 | 68 | 104 | 1.7 | 2.6 | 0.00 | 0.25 | 0.25 | 99 | 1017.2 |
| 20260903011121 | 68 | 92 | 1.7 | 4.3 | 0.00 | 0.25 | 0.25 | 99 | 1017.4 |
| 20260903010122 | 68 | 106 | 1.7 | 3.5 | 0.00 | 0.25 | 0.25 | 99 | 1017.4 |
| 20260903005142 | 68 | 107 | 1.7 | 2.6 | 0.00 | 0.25 | 0.25 | 99 | 1017.8 |
| 20260903004142 | 68 | 70 | 1.7 | 3.5 | 0.00 | 0.25 | 0.25 | 99 | 1017.8 |
| 20260903003121 | 68 | 78 | 0.9 | 1.7 | 0.00 | 0.25 | 0.25 | 99 | 1017.5 |
| 20260903002142 | 68 | 118 | 0.9 | 2.6 | 0.00 | 0.25 | 0.25 | 99 | 1017.1 |
| 20260903001124 | 68 | 79 | 0.9 | 2.6 | 0.00 | 0.25 | 0.25 | 99 | 1016.8 |
| 20260903000121 | 68 | 109 | 1.7 | 3.5 | 0.00 | 0.25 | 0.25 | 99 | 1016.8 |
| 20260902235121 | 68 | 101 | 2.6 | 4.3 | 0.00 | 0.25 | 0.25 | 99 | 1016.8 |
| 20260902234121 | 68 | 110 | 1.7 | 4.3 | 0.00 | 0.25 | 0.25 | 99 | 1016.8 |
| 20260902233124 | 68 | 98 | 2.6 | 5.2 | 0.00 | 0.25 | 0.25 | 99 | 1016.6 |
| 20260902232122 | 68 | 113 | 2.6 | 4.3 | 0.00 | 0.25 | 0.25 | 99 | 1016.7 |
| 20260902231122 | 68 | 99 | 2.6 | 5.2 | 0.00 | 0.25 | 0.25 | 99 | 1017.0 |
| 20260902230123 | 69 | 103 | 2.6 | 4.3 | 0.00 | 0.25 | 0.25 | 99 | 1017.0 |
| 20260902225122 | 69 | 113 | 1.7 | 3.5 | 0.00 | 0.25 | 0.25 | 99 | 1017.2 |
| 20260902224123 | 69 | 93 | 2.6 | 5.2 | 0.00 | 0.25 | 0.25 | 99 | 1017.0 |
| 20260902223123 | 69 | 103 | 2.6 | 5.2 | 0.00 | 0.25 | 0.25 | 99 | 1017.8 |
| 20260902222123 | 69 | 91 | 2.6 | 3.5 | 0.00 | 0.25 | 0.25 | 99 | 1017.9 |
| 20260902221122 | 70 | 98 | 2.6 | 4.3 | 0.00 | 0.25 | 0.25 | 99 | 1018.0 |
| 20260902220124 | 70 | 110 | 1.7 | 3.5 | 0.00 | 0.25 | 0.25 | 99 | 1018.0 |
| 20260902215120 | 70 | 90 | 0.9 | 3.5 | 0.00 | 0.25 | 0.25 | 99 | 1018.0 |
| 20260902214143 | 70 | 97 | 1.7 | 3.5 | 0.00 | 0.25 | 0.25 | 99 | 1017.9 |
| 20260902213121 | 70 | 108 | 1.7 | 3.5 | 0.00 | 0.25 | 0.25 | 99 | 1017.8 |
| 20260902212120 | 70 | 125 | 2.6 | 4.3 | 0.00 | 0.25 | 0.25 | 99 | 1017.7 |
| 20260902211120 | 70 | 127 | 1.7 | 2.6 | 0.00 | 0.25 | 0.25 | 99 | 1017.5 |
| 20260902210120 | 70 | 127 | 2.6 | 4.3 | 0.00 | 0.25 | 0.25 | 99 | 1017.5 |
| 20260902205146 | 70 | 133 | 2.6 | 4.3 | 0.00 | 0.25 | 0.25 | 99 | 1017.4 |
| 20260902204121 | 69 | 112 | 2.6 | 3.5 | 0.18 | 0.25 | 0.25 | 99 | 1017.7 |
| 20260902203120 | 69 | 125 | 2.6 | 4.3 | 0.23 | 0.25 | 0.25 | 99 | 1017.9 |
| 20260902202120 | 69 | 135 | 2.6 | 4.3 | 0.24 | 0.25 | 0.25 | 99 | 1018.1 |
| 20260902201123 | 69 | 124 | 2.6 | 4.3 | 0.24 | 0.25 | 0.25 | 99 | 1017.9 |
| 20260902200122 | 69 | 125 | 1.7 | 2.6 | 0.24 | 0.25 | 0.25 | 99 | 1017.9 |
| 20260902195122 | 70 | 99 | 0.9 | 2.6 | 0.24 | 0.25 | 0.25 | 99 | 1018.2 |
| 20260902194121 | 71 | 302 | 0.0 | 1.7 | 0.06 | 0.07 | 0.07 | 98 | 1018.6 |
| 20260902193121 | 71 | 75 | 1.7 | 2.6 | 0.01 | 0.02 | 0.02 | 93 | 1018.2 |
| 20260902192144 | 73 | 94 | 1.7 | 2.6 | 0.00 | 0.01 | 0.01 | 90 | 1018.0 |
| 20260902191123 | 73 | 145 | 1.7 | 3.5 | 0.00 | 0.01 | 0.01 | 87 | 1017.9 |
| 20260902190121 | 74 | 114 | 2.6 | 6.1 | 0.00 | 0.01 | 0.01 | 84 | 1017.9 |
| 20260902185142 | 74 | 180 | 2.6 | 5.2 | 0.00 | 0.01 | 0.01 | 84 | 1018.0 |
| 20260902184121 | 74 | 113 | 3.5 | 7.8 | 0.00 | 0.01 | 0.01 | 84 | 1017.9 |
| 20260902183146 | 75 | 112 | 2.6 | 4.3 | 0.00 | 0.01 | 0.01 | 82 | 1017.9 |
| 20260902182127 | 76 | 154 | 1.7 | 4.3 | 0.00 | 0.01 | 0.01 | 81 | 1018.0 |
| 20260902181142 | 75 | 134 | 2.6 | 4.3 | 0.00 | 0.01 | 0.01 | 81 | 1018.2 |
| 20260902180121 | 75 | 96 | 3.5 | 5.2 | 0.00 | 0.01 | 0.01 | 80 | 1018.2 |
| 20260902175121 | 75 | 112 | 2.6 | 5.2 | 0.00 | 0.01 | 0.01 | 80 | 1018.2 |
| 20260902174121 | 74 | 105 | 2.6 | 4.3 | 0.00 | 0.01 | 0.01 | 82 | 1018.2 |
| 20260902173145 | 75 | 129 | 1.7 | 3.5 | 0.00 | 0.02 | 0.01 | 81 | 1018.5 |
| 20260902172122 | 74 | 119 | 1.7 | 3.5 | 0.00 | 0.02 | 0.01 | 82 | 1018.5 |
| 20260902171147 | 74 | 133 | 0.9 | 2.6 | 0.00 | 0.02 | 0.01 | 82 | 1018.6 |
| 20260902170123 | 74 | 128 | 1.7 | 3.5 | 0.00 | 0.02 | 0.01 | 82 | 1018.6 |
| 20260902165142 | 74 | 119 | 0.9 | 2.6 | 0.00 | 0.02 | 0.01 | 81 | 1018.6 |
| 20260902164123 | 75 | 186 | 1.7 | 3.5 | 0.00 | 0.02 | 0.01 | 80 | 1018.6 |
| 20260902163144 | 75 | 159 | 0.9 | 3.5 | 0.00 | 0.02 | 0.01 | 81 | 1018.6 |
| 20260902162121 | 74 | 130 | 0.9 | 2.6 | 0.00 | 0.02 | 0.01 | 82 | 1018.6 |
| 20260902161122 | 73 | 128 | 2.6 | 4.3 | 0.00 | 0.02 | 0.01 | 82 | 1018.6 |
| 20260902160123 | 73 | 124 | 1.7 | 2.6 | 0.00 | 0.02 | 0.01 | 83 | 1018.6 |
| 20260902155125 | 73 | 102 | 2.6 | 4.3 | 0.00 | 0.03 | 0.01 | 82 | 1018.7 |
| 20260902154122 | 73 | 91 | 2.6 | 3.5 | 0.00 | 0.05 | 0.01 | 83 | 1018.8 |
| 20260902153122 | 73 | 99 | 3.5 | 5.2 | 0.00 | 0.06 | 0.01 | 83 | 1018.8 |
| 20260902152125 | 72 | 98 | 2.6 | 4.3 | 0.00 | 0.07 | 0.01 | 84 | 1018.9 |
| 20260902151122 | 72 | 102 | 2.6 | 4.3 | 0.00 | 0.08 | 0.01 | 84 | 1018.9 |
| 20260902150122 | 71 | 99 | 1.7 | 3.5 | 0.00 | 0.08 | 0.01 | 85 | 1018.9 |
| 20260902145122 | 71 | 109 | 1.7 | 3.5 | 0.00 | 0.08 | 0.01 | 84 | 1019.0 |
| 20260902144126 | 71 | 101 | 1.7 | 3.5 | 0.00 | 0.10 | 0.01 | 85 | 1019.0 |
| 20260902142123 | 70 | 75 | 2.6 | 3.5 | 0.00 | 0.10 | 0.01 | 87 | 1018.9 |
| 20260902141120 | 70 | 99 | 1.7 | 4.3 | 0.00 | 0.10 | 0.01 | 88 | 1019.0 |
| 20260902140120 | 69 | 76 | 2.6 | 4.3 | 0.00 | 0.10 | 0.01 | 88 | 1019.0 |
| 20260902135143 | 69 | 99 | 2.6 | 5.2 | 0.00 | 0.10 | 0.01 | 88 | 1018.6 |
| 20260902134127 | 69 | 96 | 2.6 | 4.3 | 0.00 | 0.10 | 0.01 | 88 | 1018.5 |
| 20260902134120 | 69 | 97 | 2.6 | 4.3 | 0.00 | 0.10 | 0.01 | 88 | 1018.5 |
| 20260902133120 | 69 | 89 | 2.6 | 4.3 | 0.00 | 0.10 | 0.01 | 87 | 1018.2 |
| 20260902132120 | 69 | 111 | 3.5 | 7.8 | 0.00 | 0.10 | 0.01 | 88 | 1018.5 |
| 20260902131121 | 69 | 98 | 3.5 | 5.2 | 0.00 | 0.10 | 0.01 | 90 | 1018.4 |
| 20260902130120 | 68 | 99 | 2.6 | 4.3 | 0.00 | 0.10 | 0.01 | 91 | 1018.4 |
| 20260902125120 | 68 | 122 | 2.6 | 5.2 | 0.00 | 0.10 | 0.01 | 95 | 1018.2 |
| 20260902124121 | 67 | 87 | 2.6 | 4.3 | 0.00 | 0.10 | 0.01 | 97 | 1018.2 |
| 20260902123127 | 67 | 77 | 2.6 | 3.5 | 0.00 | 0.10 | 0.01 | 99 | 1018.2 |
| 20260902121145 | 66 | 79 | 2.6 | 4.3 | 0.00 | 0.10 | 0.01 | 99 | 1018.2 |
| 20260902120146 | 66 | 87 | 1.7 | 4.3 | 0.00 | 0.10 | 0.01 | 99 | 1018.2 |
| 20260902115120 | 65 | 68 | 2.6 | 5.2 | 0.00 | 0.10 | 0.01 | 99 | 1018.2 |
| 20260902113121 | 65 | 112 | 2.6 | 3.5 | 0.00 | 0.10 | 0.01 | 99 | 1018.2 |
| 20260902112124 | 65 | 96 | 2.6 | 6.1 | 0.00 | 0.10 | 0.01 | 99 | 1018.0 |
| 20260902111121 | 65 | 48 | 1.7 | 3.5 | 0.00 | 0.10 | 0.01 | 99 | 1018.2 |
| 20260902110151 | 65 | 88 | 2.6 | 5.2 | 0.00 | 0.10 | 0.01 | 99 | 1018.2 |
| 20260902105121 | 65 | 111 | 2.6 | 5.2 | 0.01 | 0.10 | 0.01 | 99 | 1018.1 |
| 20260902104121 | 65 | 91 | 2.6 | 5.2 | 0.01 | 0.10 | 0.01 | 99 | 1017.8 |
| 20260902103120 | 65 | 91 | 2.6 | 4.3 | 0.01 | 0.10 | 0.01 | 99 | 1017.7 |
| 20260902102143 | 66 | 103 | 2.6 | 4.3 | 0.01 | 0.10 | 0.01 | 99 | 1017.6 |
| 20260902101121 | 66 | 104 | 2.6 | 5.2 | 0.01 | 0.10 | 0.01 | 99 | 1017.4 |
| 20260902100122 | 66 | 117 | 2.6 | 5.2 | 0.01 | 0.10 | 0.01 | 99 | 1017.4 |
| 20260902095121 | 66 | 55 | 2.6 | 4.3 | 0.00 | 0.09 | 0.00 | 99 | 1017.2 |
| 20260902094142 | 66 | 64 | 2.6 | 5.2 | 0.00 | 0.09 | 0.00 | 99 | 1017.2 |
| 20260902093121 | 66 | 50 | 1.7 | 4.3 | 0.00 | 0.09 | 0.00 | 99 | 1017.2 |
| 20260902092125 | 67 | 87 | 2.6 | 4.3 | 0.00 | 0.09 | 0.00 | 99 | 1017.2 |
| 20260902091121 | 67 | 26 | 2.6 | 4.3 | 0.00 | 0.09 | 0.00 | 99 | 1017.2 |
| 20260902090121 | 67 | 46 | 1.7 | 5.2 | 0.00 | 0.09 | 0.00 | 99 | 1017.2 |
| 20260902085121 | 67 | 359 | 0.9 | 2.6 | 0.00 | 0.09 | 0.00 | 99 | 1017.2 |
| 20260902084121 | 67 | 83 | 1.7 | 2.6 | 0.00 | 0.09 | 0.00 | 99 | 1017.1 |
| 20260902083121 | 67 | 91 | 1.7 | 3.5 | 0.00 | 0.09 | 0.00 | 99 | 1017.0 |
| 20260902082121 | 67 | 105 | 0.9 | 2.6 | 0.00 | 0.10 | 0.00 | 99 | 1016.9 |
| 20260902081121 | 66 | 251 | 1.7 | 3.5 | 0.00 | 0.12 | 0.00 | 99 | 1016.8 |
| 20260902080126 | 66 | 107 | 1.7 | 3.5 | 0.00 | 0.12 | 0.00 | 99 | 1016.8 |
| 20260902075121 | 66 | 119 | 2.6 | 5.2 | 0.00 | 0.13 | 0.00 | 99 | 1016.6 |
| 20260902074122 | 66 | 104 | 2.6 | 4.3 | 0.00 | 0.13 | 0.00 | 99 | 1016.2 |
| 20260902073122 | 66 | 71 | 1.7 | 6.1 | 0.00 | 0.13 | 0.00 | 99 | 1016.1 |
| 20260902072122 | 66 | 92 | 1.7 | 3.5 | 0.00 | 0.13 | 0.00 | 99 | 1016.2 |
| 20260902071121 | 66 | 108 | 1.7 | 2.6 | 0.00 | 0.13 | 0.00 | 99 | 1016.5 |
| 20260902070125 | 66 | 100 | 1.7 | 3.5 | 0.00 | 0.16 | 0.00 | 99 | 1016.5 |
| 20260902065121 | 66 | 89 | 1.7 | 4.3 | 0.00 | 0.18 | 0.00 | 99 | 1016.5 |
| 20260902064122 | 66 | 100 | 2.6 | 5.2 | 0.00 | 0.20 | 0.00 | 99 | 1016.4 |
| 20260902063143 | 66 | 63 | 1.7 | 4.3 | 0.00 | 0.20 | 0.00 | 99 | 1016.6 |
| 20260902062122 | 66 | 14 | 1.7 | 2.6 | 0.00 | 0.20 | 0.00 | 99 | 1016.5 |
| 20260902061122 | 66 | 101 | 2.6 | 5.2 | 0.00 | 0.20 | 0.00 | 99 | 1016.6 |
| 20260902060121 | 66 | 100 | 2.6 | 4.3 | 0.00 | 0.20 | 0.00 | 99 | 1016.6 |
| 20260902055121 | 66 | 82 | 1.7 | 3.5 | 0.00 | 0.21 | 0.00 | 99 | 1016.7 |
| 20260902054121 | 67 | 86 | 1.7 | 3.5 | 0.00 | 0.27 | 0.00 | 99 | 1016.8 |
| 20260902053141 | 67 | 71 | 2.6 | 5.2 | 0.00 | 0.27 | 0.00 | 99 | 1017.0 |
| 20260902052122 | 67 | 80 | 2.6 | 4.3 | 0.00 | 0.31 | 0.00 | 99 | 1017.0 |
| 20260902051122 | 67 | 24 | 2.6 | 4.3 | 0.00 | 0.33 | 0.00 | 99 | 1016.7 |
| 20260902050121 | 67 | 55 | 2.6 | 4.3 | 0.00 | 0.33 | 0.00 | 99 | 1016.7 |
| 20260902045121 | 67 | 60 | 2.6 | 4.3 | 0.00 | 0.33 | 0.00 | 99 | 1016.4 |
| 20260902044121 | 67 | 69 | 1.7 | 4.3 | 0.00 | 0.33 | 0.00 | 99 | 1016.5 |
| 20260902043121 | 67 | 82 | 1.7 | 3.5 | 0.00 | 0.33 | 0.00 | 99 | 1016.6 |
| 20260902042121 | 67 | 106 | 3.5 | 6.1 | 0.00 | 0.33 | 0.00 | 99 | 1016.2 |